Location: Unspecified
(43.8044°N, 11.0278°E)
Time: 09:04:45
(UTC+02:00)

Cosmos 2058 - Visible Passes

Search period start: 19 April 2014 00:00
Search period end: 29 April 2014 00:00
Orbit: 572 x 595 km, 82.5° (Epoch: 18 April)

Date Brightness Start Highest point End Pass type
(mag) Time Alt. Az. Time Alt. Az. Time Alt. Az.
19 Apr 4.2 05:53:04 10° SSE 05:57:09 47° E 06:01:15 10° NNE visible
22 Apr 6.0 04:37:22 10° ESE 04:39:06 12° E 04:40:49 10° ENE visible
23 Apr 5.8 04:42:19 10° SE 04:45:06 17° E 04:47:54 10° NE visible
24 Apr 5.3 04:47:44 10° SE 04:51:08 24° E 04:54:33 10° NE visible
25 Apr 4.7 04:53:22 10° SSE 04:57:11 33° E 05:01:01 10° NNE visible
26 Apr 4.0 04:59:11 10° SSE 05:03:16 47° E 05:07:21 10° NNE visible
27 Apr 3.3 05:05:08 10° S 05:09:21 68° E 05:13:35 10° NNE visible
28 Apr 2.9 05:11:13 10° S 05:15:28 84° W 05:19:44 10° N visible
